Tracking 29777 objects as of 5-Oct-2024
HD Live streaming from Space Station
objects crossing your sky now

NUSAT-36 (ANNIE CANNON)

Track NUSAT-36 (ANNIE CANNON) now!
10-day predictions


NORAD ID: 56190
Int'l Code: 2023-054N
Perigee: 430.5 km
Apogee: 442.5 km
Inclination: 97.3 °
Period: 93.2 minutes
Semi major axis: 6807 km
RCS: Unknown
Launch date: April 15, 2023
Source: Argentina (ARGN)
Launch site: AIR FORCE WESTERN TEST RANGE (AFWTR)
Your satellite tracking list
Your tracking list is empty




NASA's NSSDC Master Catalog

Two Line Element Set (TLE):
1 56190U 23054N   24279.54961986  .00079687  00000-0  16356-2 0  9997
2 56190  97.3415 176.7371 0008814 108.3935 251.8273 15.45700988 83077
Source of the keplerian elements: AFSPC